Location: Fort Worth, Tx
(32.7431°N, 97.3695°W)
Time: 00:12:08
(UTC-04:00)

A-11 Canister half - Visible Passes

Search period start: 13 July 2024 00:00
Search period end: 23 July 2024 00:00
Orbit: 1515 x 1685 km, 47.2° (Epoch: 12 July)

Date Brightness Start Highest point End Pass type
(mag) Time Alt. Az. Time Alt. Az. Time Alt. Az.
13 Jul 10.8 23:23:11 10° W 23:28:57 17° WSW 23:34:40 10° SSW visible
14 Jul 10.8 22:59:41 10° W 23:06:03 19° WSW 23:12:19 10° SSW visible
15 Jul 10.8 22:36:17 10° W 22:43:08 21° SW 22:49:53 10° SSW visible
16 Jul 10.8 22:12:56 10° WNW 22:20:13 23° SW 22:27:23 10° S visible
17 Jul 10.8 21:49:37 10° WNW 21:57:17 25° SW 22:04:50 10° S visible
